Location: *
(55.6049°S, 142.1985°W)
Time: 00:31:08
(UTC+00:00)

CZ-4B R/B - Pass Details

Date: 12 May 2021
Orbit: 809 x 881 km, 99.1° (Epoch: 23 June)

Event Time Altitude Azimuth Distance (km) Brightness Sun altitude
Rises 14:14:17 0° 36° (NE) 3,447 6.8 -25.0°
Reaches altitude 10° 14:16:42 10° 40° (NE) 2,507 6.1 -24.6°
Maximum altitude 14:22:07 54° 116° (ESE) 1,039 3.9 -23.9°
Drops below altitude 10° 14:27:28 10° 191° (S) 2,486 5.5 -23.1°
Sets 14:29:52 0° 195° (SSW) 3,415 6.2 -22.8°
